DW5785 Weather Reports


Display with metric or nautical units.
time (UTC)temp
F
wind
direction
speed
MPH
gust
MPH
rain 1hr
in
rain 24hr
in
rain mn
in
humidity
%
barometer
mb
20260508081013 51 205 3.0 6.0 0.00 0.00 0.00 81 1018.5
20260508080515 51 236 5.0 6.0 0.00 0.00 0.00 82 1018.3
20260508080010 51 262 2.0 6.0 0.00 0.00 0.00 83 1018.3
20260508075510 50 211 1.0 5.0 0.00 0.00 0.00 84 1018.3
20260508075010 49 207 1.0 5.0 0.00 0.00 0.00 84 1018.4
20260508074513 49 205 5.0 6.0 0.00 0.00 0.00 84 1018.4
20260508074010 49 103 1.0 6.0 0.00 0.00 0.00 85 1018.3
20260508073512 49 214 5.0 7.0 0.00 0.00 0.00 84 1018.2
20260508073010 49 266 1.0 5.0 0.00 0.00 0.00 84 1018.2
20260508072513 49 282 3.0 6.0 0.00 0.00 0.00 85 1018.2
20260508072013 49 282 3.0 6.0 0.00 0.00 0.00 85 1018.1
20260508071513 49 188 2.0 4.0 0.00 0.00 0.00 85 1018.1
20260508071013 49 266 2.0 6.0 0.00 0.00 0.00 86 1018.0
20260508070512 49 282 4.0 5.0 0.00 0.00 0.00 86 1018.0
20260508070010 48 291 4.0 6.0 0.00 0.00 0.00 86 1017.9
20260508065516 48 233 5.0 7.0 0.00 0.00 0.00 87 1017.9
20260508065013 48 295 3.0 5.0 0.00 0.00 0.00 86 1017.9
20260508064510 48 223 1.0 5.0 0.00 0.00 0.00 87 1017.8
20260508064019 48 282 2.0 7.0 0.00 0.00 0.00 87 1017.8
20260508063515 48 287 4.0 7.0 0.00 0.00 0.00 87 1017.8
20260508063010 48 287 4.0 6.0 0.00 0.00 0.00 87 1017.8
20260508062510 48 268 5.0 8.0 0.00 0.00 0.00 87 1017.7
20260508062016 48 243 4.0 7.0 0.00 0.00 0.00 88 1017.7
20260508061513 47 299 3.0 6.0 0.00 0.00 0.00 88 1017.7
20260508061010 47 287 3.0 6.0 0.00 0.00 0.00 88 1017.6
20260508060515 47 304 5.0 8.0 0.00 0.00 0.00 88 1017.6
20260508060019 47 239 4.0 8.0 0.00 0.00 0.00 88 1017.5
20260508055510 47 259 4.0 8.0 0.00 0.00 0.00 88 1017.5
20260508055010 47 291 4.0 7.0 0.00 0.00 0.00 89 1017.5
20260508054513 47 268 5.0 10.0 0.00 0.00 0.00 89 1017.3
20260508054013 46 287 7.0 11.0 0.00 0.00 0.00 89 1017.3
20260508053515 46 239 5.0 10.0 0.00 0.00 0.00 89 1017.3
20260508053013 46 337 5.0 10.0 0.00 0.00 0.00 89 1017.3
20260508052516 47 177 4.0 8.0 0.00 0.00 0.00 90 1017.3
20260508052016 47 282 3.0 9.0 0.00 0.00 0.00 90 1017.3
20260508051510 47 297 4.0 9.0 0.00 0.00 0.00 91 1017.3
20260508051016 47 287 4.0 5.0 0.00 0.00 0.00 91 1017.3
20260508050518 47 296 5.0 7.0 0.00 0.00 0.00 91 1017.2
20260508050010 47 213 3.0 5.0 0.00 0.00 0.00 91 1017.1
20260508045510 47 287 3.0 4.0 0.00 0.00 0.00 91 1017.2
20260508045016 46 287 3.0 6.0 0.00 0.00 0.00 92 1017.1
20260508044510 46 254 4.0 7.0 0.00 0.00 0.00 92 1017.1
20260508044010 46 272 2.0 6.0 0.00 0.00 0.00 92 1017.1
20260508043512 46 298 3.0 5.0 0.00 0.00 0.00 92 1017.0
20260508043013 46 264 3.0 4.0 0.00 0.00 0.00 92 1017.1
20260508042510 46 277 4.0 6.0 0.00 0.00 0.00 92 1017.0
20260508042013 46 214 3.0 5.0 0.00 0.00 0.00 92 1017.0
20260508041510 46 277 2.0 5.0 0.00 0.00 0.00 92 1017.0
20260508041013 46 251 3.0 6.0 0.00 0.00 0.00 92 1017.0
20260508040515 46 277 2.0 5.0 0.00 0.00 0.00 92 1017.0
20260508040013 46 268 2.0 5.0 0.00 0.00 0.00 92 1017.0
20260508035510 46 190 1.0 5.0 0.00 0.00 0.00 92 1016.9
20260508035016 46 251 2.0 6.0 0.00 0.00 0.00 91 1017.0
20260508034513 46 253 2.0 4.0 0.00 0.00 0.00 92 1017.0
20260508034016 46 258 3.0 5.0 0.00 0.00 0.00 91 1016.8
20260508033512 46 251 3.0 7.0 0.00 0.00 0.00 91 1016.8
20260508033010 46 266 2.0 6.0 0.00 0.00 0.00 91 1016.8
20260508032510 46 266 4.0 6.0 0.00 0.00 0.00 92 1016.8
20260508032010 46 220 2.0 5.0 0.00 0.00 0.00 92 1016.8
20260508031510 46 229 3.0 6.0 0.00 0.00 0.00 92 1016.8
20260508031013 46 227 2.0 5.0 0.00 0.00 0.00 92 1016.7
20260508030512 46 261 2.0 5.0 0.00 0.00 0.00 92 1016.7
20260508030010 46 277 2.0 5.0 0.00 0.00 0.00 92 1016.7
20260508025510 46 230 3.0 6.0 0.00 0.00 0.00 91 1016.7
20260508025013 46 268 3.0 7.0 0.00 0.00 0.00 92 1016.7
20260508024510 46 224 5.0 8.0 0.00 0.00 0.00 92 1016.7
20260508024016 46 253 1.0 7.0 0.00 0.00 0.00 92 1016.6
20260508023518 46 282 7.0 8.0 0.00 0.00 0.00 92 1016.6
20260508023010 46 271 4.0 8.0 0.00 0.00 0.00 92 1016.7
20260508022510 46 251 4.0 7.0 0.00 0.00 0.00 92 1016.7
20260508022016 46 282 4.0 7.0 0.00 0.00 0.00 92 1016.7
20260508021517 46 237 3.0 8.0 0.00 0.00 0.00 92 1016.7
20260508021016 46 239 4.0 8.0 0.00 0.00 0.00 92 1016.7
20260508020518 46 262 4.0 7.0 0.00 0.00 0.00 92 1016.7
20260508020010 46 249 2.0 9.0 0.00 0.00 0.00 92 1016.6
20260508015513 46 243 1.0 7.0 0.00 0.00 0.00 92 1016.7
20260508015010 46 260 3.0 9.0 0.00 0.00 0.00 92 1016.7
20260508014510 46 249 7.0 9.0 0.00 0.00 0.00 92 1016.7
20260508014013 46 293 3.0 8.0 0.00 0.00 0.00 92 1016.7
20260508013512 46 263 5.0 10.0 0.00 0.00 0.00 92 1016.6
20260508013013 46 258 7.0 10.0 0.00 0.00 0.00 92 1016.6
20260508012513 46 282 5.0 10.0 0.00 0.00 0.00 92 1016.5
20260508012010 47 213 7.0 12.0 0.00 0.00 0.00 92 1016.5
20260508011510 47 261 5.0 10.0 0.00 0.00 0.00 92 1016.6
20260508011010 47 282 6.0 9.0 0.00 0.00 0.00 91 1016.6
20260508010512 47 233 4.0 9.0 0.00 0.00 0.00 91 1016.5
20260508010010 47 243 5.0 9.0 0.00 0.00 0.00 92 1016.6
20260508005519 47 282 4.0 8.0 0.00 0.00 0.00 92 1016.6
20260508005013 47 247 4.0 9.0 0.00 0.00 0.00 92 1016.5
20260508004513 47 282 5.0 10.0 0.00 0.00 0.00 91 1016.6
20260508004016 47 218 4.0 6.0 0.00 0.00 0.00 91 1016.5
20260508003512 47 258 6.0 8.0 0.00 0.00 0.00 91 1016.6
20260508003013 47 282 6.0 7.0 0.00 0.00 0.00 91 1016.6
20260508002510 47 282 4.0 10.0 0.00 0.00 0.00 91 1016.6
20260508002010 47 272 5.0 6.0 0.00 0.00 0.00 91 1016.7
20260508001513 48 262 2.0 8.0 0.00 0.00 0.00 91 1016.7
20260508001016 48 247 6.0 7.0 0.00 0.00 0.00 91 1016.8
20260508000518 48 282 5.0 9.0 0.00 0.00 0.00 91 1016.9
20260508000010 48 254 6.0 7.0 0.00 0.00 0.00 91 1016.9
20260507235516 48 182 3.0 6.0 0.00 0.00 0.00 91 1016.9
20260507235019 48 282 3.0 7.0 0.00 0.00 0.00 91 1016.9
20260507234510 48 264 2.0 6.0 0.00 0.00 0.00 91 1016.9
20260507234019 48 240 3.0 5.0 0.00 0.00 0.00 91 1016.8
20260507233518 48 242 2.0 5.0 0.00 0.00 0.00 91 1016.9
20260507233013 48 261 3.0 5.0 0.00 0.00 0.00 91 1016.8
20260507232519 48 230 5.0 6.0 0.00 0.00 0.00 91 1016.8
20260507232010 48 254 2.0 5.0 0.00 0.00 0.00 91 1016.9
20260507231510 48 257 3.0 7.0 0.00 0.00 0.00 90 1016.9
20260507231010 48 260 3.0 5.0 0.00 0.00 0.00 90 1016.8
20260507230518 48 250 4.0 7.0 0.00 0.00 0.00 90 1016.8
20260507230010 48 244 3.0 6.0 0.00 0.00 0.00 90 1016.9
20260507225510 48 238 4.0 8.0 0.00 0.00 0.00 90 1017.0
20260507225010 48 255 4.0 6.0 0.00 0.00 0.00 90 1016.9
20260507224510 48 199 4.0 5.0 0.00 0.00 0.00 90 1016.9
20260507224010 48 228 2.0 8.0 0.00 0.00 0.00 90 1016.9
20260507223512 48 226 8.0 9.0 0.00 0.00 0.00 90 1016.8
20260507223013 48 277 5.0 10.0 0.00 0.00 0.00 90 1016.7
20260507222513 48 330 3.0 8.0 0.00 0.00 0.00 90 1016.7
20260507222010 48 248 5.0 10.0 0.00 0.00 0.00 90 1016.7
20260507221510 48 245 5.0 8.0 0.00 0.00 0.00 90 1016.8
20260507221010 48 282 3.0 8.0 0.00 0.00 0.00 90 1016.8
20260507220512 49 251 3.0 7.0 0.00 0.00 0.00 90 1016.9
20260507220013 48 291 4.0 9.0 0.00 0.00 0.00 90 1016.9
20260507215510 48 282 4.0 11.0 0.00 0.00 0.00 90 1016.8
20260507215013 49 287 7.0 9.0 0.00 0.00 0.00 91 1016.7
20260507214510 48 282 4.0 9.0 0.00 0.00 0.00 91 1016.6
20260507214010 49 291 4.0 8.0 0.00 0.00 0.00 91 1016.6
20260507213512 49 287 4.0 7.0 0.00 0.00 0.00 91 1016.6
20260507213013 49 287 7.0 9.0 0.00 0.00 0.00 91 1016.5
20260507212510 49 247 3.0 11.0 0.00 0.00 0.00 91 1016.4
20260507212013 49 260 10.0 10.0 0.00 0.00 0.00 91 1016.4
20260507211510 49 282 5.0 9.0 0.00 0.01 0.00 91 1016.4
20260507211010 49 264 5.0 8.0 0.00 0.02 0.00 91 1016.4
20260507210515 49 213 4.0 8.0 0.00 0.03 0.00 91 1016.4
20260507210016 49 222 5.0 11.0 0.00 0.06 0.00 91 1016.3
20260507205510 49 315 4.0 8.0 0.00 0.07 0.00 91 1016.2
20260507205010 49 251 2.0 8.0 0.00 0.08 0.00 91 1016.2
20260507204516 49 295 9.0 9.0 0.00 0.08 0.00 91 1016.3
20260507204010 49 245 8.0 11.0 0.00 0.09 0.00 91 1016.2
20260507203512 49 282 5.0 9.0 0.00 0.11 0.00 91 1016.2
20260507203013 49 297 3.0 9.0 0.00 0.11 0.00 91 1016.2
20260507202513 49 316 3.0 8.0 0.00 0.11 0.00 91 1016.2
20260507202010 49 287 6.0 7.0 0.00 0.11 0.00 91 1016.1
20260507201513 49 277 3.0 9.0 0.00 0.11 0.00 91 1016.0
20260507201013 49 305 5.0 10.0 0.00 0.11 0.00 91 1016.0
20260507200515 50 239 3.0 12.0 0.00 0.12 0.00 92 1015.9
20260507200013 50 268 7.0 12.0 0.00 0.16 0.00 92 1015.8
20260507195513 50 213 5.0 13.0 0.00 0.19 0.00 91 1015.7
20260507195010 50 282 5.0 10.0 0.00 0.19 0.00 92 1015.7
20260507194510 51 224 6.0 8.0 0.00 0.21 0.00 91 1015.5
20260507194013 51 258 3.0 9.0 0.00 0.21 0.00 91 1015.5
20260507193512 51 240 5.0 8.0 0.00 0.22 0.00 91 1015.4
20260507193013 51 220 3.0 7.0 0.00 0.22 0.00 91 1015.4
20260507192510 51 282 4.0 6.0 0.00 0.22 0.00 91 1015.3
20260507192010 51 189 2.0 8.0 0.00 0.22 0.00 91 1015.2
20260507191510 51 228 3.0 9.0 0.00 0.25 0.00 90 1015.1
20260507191013 51 308 4.0 9.0 0.00 0.29 0.00 90 1015.0
20260507190512 52 235 7.0 9.0 0.00 0.30 0.00 89 1014.9
20260507190010 52 201 2.0 9.0 0.00 0.30 0.00 89 1014.9
20260507185510 52 282 2.0 9.0 0.00 0.30 0.00 88 1014.8
20260507185010 52 237 4.0 8.0 0.00 0.30 0.00 87 1014.7
20260507184510 53 277 2.0 7.0 0.00 0.30 0.00 87 1014.7
20260507184013 53 251 6.0 9.0 0.00 0.30 0.00 86 1014.7
20260507183512 53 237 1.0 8.0 0.00 0.30 0.00 85 1014.6
20260507183010 54 228 6.0 8.0 0.00 0.30 0.00 84 1014.5
20260507182516 54 299 3.0 8.0 0.00 0.30 0.00 84 1014.4
20260507182016 54 224 5.0 9.0 0.00 0.30 0.00 83 1014.4
20260507181510 54 184 6.0 10.0 0.00 0.30 0.00 82 1014.4
20260507181016 54 216 9.0 10.0 0.00 0.30 0.00 82 1014.3
20260507180512 54 179 3.0 5.0 0.00 0.30 0.00 82 1014.3
20260507180010 54 218 2.0 7.0 0.00 0.30 0.00 81 1014.3
20260507175513 54 192 6.0 7.0 0.00 0.30 0.00 80 1014.3
20260507175016 54 218 4.0 7.0 0.00 0.30 0.00 79 1014.2
20260507174513 54 199 3.0 8.0 0.00 0.30 0.00 79 1014.1
20260507174010 55 181 6.0 9.0 0.00 0.30 0.00 78 1014.0
20260507173515 55 218 4.0 11.0 0.00 0.30 0.00 78 1013.9
20260507173010 55 208 6.0 8.0 0.00 0.30 0.00 78 1013.8
20260507172513 55 111 3.0 7.0 0.00 0.30 0.00 78 1013.9
20260507172010 55 206 4.0 9.0 0.00 0.30 0.00 77 1013.8
20260507171519 56 191 4.0 11.0 0.00 0.30 0.00 77 1013.7
20260507171016 56 192 7.0 10.0 0.00 0.30 0.00 77 1013.6
20260507170512 56 205 7.0 11.0 0.00 0.30 0.00 77 1013.6
20260507170010 56 208 8.0 11.0 0.00 0.30 0.00 77 1013.6
20260507165510 56 214 8.0 9.0 0.00 0.30 0.00 76 1013.6
20260507165016 56 172 8.0 13.0 0.00 0.30 0.00 75 1013.6
20260507164510 57 200 10.0 16.0 0.00 0.30 0.00 74 1013.5
20260507164010 57 203 6.0 12.0 0.00 0.30 0.00 73 1013.5
20260507163512 57 191 6.0 11.0 0.00 0.30 0.00 73 1013.5
20260507163010 57 196 10.0 17.0 0.00 0.30 0.00 73 1013.4
20260507162510 57 208 12.0 19.0 0.00 0.30 0.00 71 1013.4
20260507162010 57 218 12.0 17.0 0.00 0.30 0.00 69 1013.3
20260507161513 57 215 9.0 15.0 0.00 0.30 0.00 68 1013.3
20260507161019 57 203 12.0 15.0 0.00 0.30 0.00 68 1013.3
20260507160521 57 213 7.0 11.0 0.00 0.30 0.00 69 1013.3
20260507160016 57 213 6.0 14.0 0.00 0.30 0.00 68 1013.3
20260507155510 57 195 4.0 16.0 0.00 0.30 0.00 68 1013.2
20260507155010 57 204 9.0 18.0 0.00 0.30 0.00 67 1013.2
20260507154510 58 182 7.0 18.0 0.00 0.30 0.00 67 1013.1
20260507154013 58 225 5.0 16.0 0.00 0.30 0.00 68 1013.1
20260507153512 59 209 9.0 13.0 0.00 0.30 0.00 67 1013.0
20260507153010 59 174 1.0 8.0 0.00 0.31 0.00 67 1013.0
20260507152510 59 185 7.0 12.0 0.00 0.31 0.00 67 1013.0
20260507152010 59 147 4.0 10.0 0.00 0.31 0.00 67 1012.9
20260507151513 58 117 6.0 16.0 0.00 0.31 0.00 68 1012.9
20260507151010 58 187 8.0 14.0 0.00 0.32 0.00 68 1012.8
20260507150518 59 208 13.0 17.0 0.00 0.32 0.00 66 1012.8
20260507150016 60 195 6.0 14.0 0.00 0.32 0.00 66 1012.7
20260507145513 60 234 3.0 19.0 0.00 0.32 0.00 64 1012.7
20260507145013 60 143 7.0 10.0 0.00 0.32 0.00 64 1012.7
20260507144513 60 213 8.0 12.0 0.00 0.32 0.00 64 1012.6
20260507144010 60 134 8.0 12.0 0.00 0.32 0.00 64 1012.6
20260507143512 60 214 6.0 10.0 0.00 0.32 0.00 63 1012.6
20260507143010 60 164 4.0 18.0 0.00 0.32 0.00 63 1012.5
20260507142519 60 196 6.0 14.0 0.00 0.32 0.00 62 1012.5
20260507142010 61 185 6.0 15.0 0.00 0.32 0.00 61 1012.5
20260507141510 61 115 6.0 14.0 0.00 0.32 0.00 60 1012.4
20260507141013 61 160 7.0 15.0 0.00 0.32 0.00 61 1012.3
20260507140512 61 168 7.0 12.0 0.00 0.32 0.00 61 1012.3
20260507140010 60 170 9.0 14.0 0.00 0.32 0.00 61 1012.4
20260507135510 60 119 8.0 13.0 0.00 0.32 0.00 61 1012.3
20260507135010 60 157 8.0 17.0 0.00 0.32 0.00 61 1012.4
20260507134511 61 129 8.0 16.0 0.00 0.32 0.00 62 1012.4
20260507134013 60 144 11.0 17.0 0.00 0.32 0.00 62 1012.5
20260507133510 60 154 16.0 16.0 0.00 0.32 0.00 61 1012.4
20260507133010 60 164 12.0 15.0 0.00 0.32 0.00 61 1012.4
20260507132513 61 120 8.0 18.0 0.00 0.32 0.00 61 1012.4
20260507132010 61 158 8.0 14.0 0.00 0.32 0.00 61 1012.3
20260507131512 60 117 11.0 17.0 0.00 0.32 0.00 62 1012.3
20260507131010 60 144 15.0 16.0 0.00 0.32 0.00 62 1012.3
20260507130516 60 131 6.0 16.0 0.00 0.32 0.00 62 1012.3
20260507130013 60 143 6.0 16.0 0.00 0.32 0.00 61 1012.3
20260507125519 60 106 5.0 20.0 0.00 0.32 0.00 62 1012.3
20260507125011 60 127 15.0 15.0 0.00 0.32 0.00 63 1012.2
20260507124512 59 147 3.0 15.0 0.00 0.32 0.00 62 1012.3
20260507124019 59 153 13.0 13.0 0.00 0.32 0.00 63 1012.2
20260507123513 59 151 8.0 16.0 0.00 0.32 0.00 63 1012.2
20260507123010 59 100 10.0 18.0 0.00 0.32 0.00 63 1012.2
20260507122510 59 98 9.0 14.0 0.00 0.32 0.00 62 1012.2
20260507122010 59 162 3.0 16.0 0.00 0.32 0.00 63 1012.3
20260507121515 59 158 8.0 16.0 0.00 0.32 0.00 63 1012.2
20260507121010 59 164 9.0 13.0 0.00 0.32 0.00 64 1012.2
20260507120510 59 143 8.0 13.0 0.00 0.32 0.00 65 1012.1
20260507120010 58 176 9.0 12.0 0.00 0.32 0.00 65 1012.1
20260507115513 58 82 7.0 18.0 0.00 0.32 0.00 65 1012.1
20260507115010 58 162 9.0 15.0 0.00 0.32 0.00 65 1012.1
20260507114518 59 273 7.0 17.0 0.00 0.32 0.00 63 1012.1
20260507114013 59 144 6.0 15.0 0.00 0.32 0.00 64 1012.0
20260507113513 59 159 11.0 14.0 0.00 0.32 0.00 64 1012.0
20260507113013 59 131 11.0 21.0 0.00 0.32 0.00 62 1011.9
20260507112513 60 102 7.0 12.0 0.00 0.32 0.00 64 1011.9
20260507112019 59 122 11.0 14.0 0.00 0.32 0.00 64 1011.9
20260507111512 59 168 8.0 16.0 0.00 0.32 0.00 62 1011.9
20260507111013 59 146 15.0 17.0 0.00 0.32 0.00 63 1011.9
20260507110513 59 167 13.0 20.0 0.00 0.32 0.00 64 1011.8
20260507110010 59 91 7.0 15.0 0.00 0.32 0.00 65 1011.9
20260507105510 58 145 6.0 18.0 0.00 0.32 0.00 64 1011.8
20260507105010 59 152 5.0 16.0 0.00 0.32 0.00 65 1011.8
20260507104518 59 97 7.0 20.0 0.00 0.32 0.00 65 1011.7
20260507104014 59 133 6.0 15.0 0.00 0.32 0.00 66 1011.7
20260507103510 59 154 11.0 17.0 0.00 0.32 0.00 67 1011.6
20260507103013 59 145 8.0 14.0 0.00 0.32 0.00 67 1011.7
20260507102510 59 145 7.0 18.0 0.00 0.32 0.00 66 1011.6
20260507102010 60 120 14.0 19.0 0.00 0.32 0.00 64 1011.5
20260507101512 61 178 8.0 13.0 0.00 0.32 0.00 66 1011.4
20260507101010 60 145 8.0 15.0 0.00 0.32 0.00 65 1011.4
20260507100510 60 157 13.0 21.0 0.00 0.32 0.00 65 1011.4
20260507100013 60 177 7.0 14.0 0.00 0.32 0.00 66 1011.3
20260507095516 59 146 9.0 12.0 0.00 0.32 0.00 69 1011.3
20260507095013 59 131 9.0 15.0 0.00 0.32 0.00 70 1011.3
20260507094511 59 142 6.0 14.0 0.00 0.32 0.00 68 1011.2
20260507094010 59 116 6.0 13.0 0.00 0.32 0.00 70 1011.2
20260507093510 59 178 8.0 18.0 0.00 0.32 0.00 68 1011.2
20260507093010 59 149 12.0 19.0 0.00 0.32 0.00 69 1011.1
20260507092519 59 168 12.0 17.0 0.00 0.32 0.00 69 1011.1
20260507092010 58 162 8.0 15.0 0.00 0.32 0.00 71 1011.1
20260507091511 58 156 7.0 15.0 0.00 0.32 0.00 70 1011.0
20260507091016 58 148 4.0 14.0 0.00 0.32 0.00 69 1011.0
20260507090510 59 115 8.0 15.0 0.00 0.32 0.00 70 1010.9
20260507090010 59 101 9.0 14.0 0.00 0.32 0.00 70 1010.8
20260507085513 59 121 10.0 17.0 0.00 0.32 0.00 70 1010.8
20260507085010 59 136 5.0 12.0 0.00 0.32 0.00 72 1010.7
20260507084511 59 134 8.0 17.0 0.00 0.32 0.00 73 1010.7
20260507084010 58 164 13.0 15.0 0.00 0.32 0.00 73 1010.7
20260507083513 58 205 2.0 15.0 0.00 0.32 0.00 73 1010.6
20260507083013 57 190 9.0 15.0 0.00 0.32 0.00 74 1010.6
20260507082513 58 93 11.0 18.0 0.00 0.32 0.00 73 1010.6
20260507082010 58 155 11.0 15.0 0.00 0.32 0.00 72 1010.5
20260507081521 58 132 12.0 17.0 0.00 0.32 0.00 73 1010.4